Regional Weather Roundup
Issued by NWS New Orleans/Baton Rouge, LA

Home | Current Version | Previous Version | Graphics & Text | Print | Product List | Glossary On
Versions: 1 2 3 4 5 6 7 8 9 10 11 12 13 14 15 16 17 18 19 20 21 22 23 24 25 26 27 28 29 30 31 32 33 34 35 36 37 38 39 40 41 42 43 44 45 46 47 48 49 50
387
ASUS44 KLIX 301905
RWRLIX
NEW ORLEANS REGIONAL WEATHER ROUNDUP
NATIONAL WEATHER SERVICE NEW ORLEANS LA
200 PM CDT THU OCT 30 2014

NOTE: "FAIR" INDICATES FEW OR NO CLOUDS BELOW 12,000 FEET WITH NO
      SIGNIFICANT WEATHER AND/OR OBSTRUCTIONS TO VISIBILITY.
      SKY/WX - SKY CONDITION AND SIGNIFICANT WEATHER.
      TMP - AIR TEMPERATURE.     DP    - DEWPOINT TEMPERATURE.
      RH  - RELATIVE HUMIDITY.   PRES  - PRESSURE.
      HI  - HEAT INDEX.          WCI   - WIND CHILL INDEX.

*  THESE STATIONS ARE NOT NWS OR FAA STATIONS AND ARE NOT UNDER
   NWS QUALITY CONTROL.

LAZ038-040-048-061>063-065>067-069-302000-
SOUTHEAST LOUISIANA

CITY           SKY/WX    TMP DP  RH WIND       PRES   REMARKS
N.O. AUDUBON     N/A    N/A N/A N/A MISG        N/A
N.O. INTL ARPT MOSUNNY   72  43  35 N10       30.07F
N.O. LAKEFRONT SUNNY     73  43  33 N7        30.07F
N.O. DOWNTOWN*   N/A     72  43  35 N7        30.06F
SLIDELL        SUNNY     74  41  30 NE10      30.05F
BATON ROUGE    SUNNY     74  41  30 N7        30.07F
BOOTHVILLE     SUNNY     72  54  53 NE9       30.05F
BELLE CHASSE   SUNNY     73  42  32 NE6       30.05F
BOGALUSA*        N/A     74  34  22 N8        30.08F
NEW ROADS*       N/A     72  41  33 N8        30.08F
GONZALES*        N/A     73  42  32 NE6       30.06F
HAMMOND*       SUNNY     75  34  22 NE9       30.07F
HOUMA*         SUNNY     73  46  38 N12       30.05F
PORT FOURCHON* CLEAR     72  52  49 NE13G20   30.08F

$$

MSZ070-080>082-302000-
SOUTHERN MISSISSIPPI

CITY           SKY/WX    TMP DP  RH WIND       PRES   REMARKS
MCCOMB         SUNNY     72  36  26 N3        30.07F
GULFPORT       SUNNY     73  42  32 NE12      30.03F
BILOXI         SUNNY     73  42  33 N13       30.04F
PASCAGOULA     SUNNY     73  39  29 N12G21    30.03F
STENNIS ARPT*  SUNNY     73  34  23 N8        30.05F

$$

COASTAL OBSERVATIONS
LAKE AND NEARSHORE STATIONS

STATION/POSITION TIME  TEMP    WIND        PRES    WAVE
                       AIR SEA DIR/SP/G            HT/PER
                 (UTC) (F)     (DEG/KT/KT) (MB)    (FT/S)
PASCAGOULA       1900   72      20/ 10/ 14 1016.3
WAVELAND YACHT   1900   69     360/ 11/ 12 1016.7
GRAND ISLE       1900   71 76   50/ 11/ 17 1017.8
SOUTHWEST PASS   1900   81 78              1017.0
NEW CANAL        1900           40/  7/  8   N/A
SHELL BEACH      1900   68 69   40/  8/ 11 1017.6

OFFSHORE STATIONS

STATION/POSITION TIME  TEMP    WIND        PRES    WAVE
                       AIR SEA DIR/SP/G            HT/PER
                 (UTC) (F)     (DEG/KT/KT) (MB)    (FT/S)
64 S DAUPHIN ISL 1800   69 78   40/ 17/ 19 1016.7    4/ 6

$$




USA.gov is the U.S. government's official web portal to all federal, state and local government web resources and services.